Location: Arbon
(43.0005°N, 0.7472°E)
Time: 19:23:49
(UTC+00:00)

NOSS 2-3 (C) - Pass Details

Date: 07 August 2020
Orbit: 572 x 1639 km, 63.4° (Epoch: 22 September)

Event Time Altitude Azimuth Distance (km) Brightness Sun altitude
Exits shadow 03:01:12 28° 179° (S) 1,136 4.5 -18.0°
Maximum altitude 03:03:07 49° 119° (ESE) 797 4.2 -17.7°
Drops below altitude 10° 03:07:42 10° 45° (NE) 2,159 7.7 -17.1°
Sets 03:10:19 0° 40° (NE) 3,217 9.0 -16.8°
